Time,TemperatureF,DewpointF,PressureIn,WindDirection,WindDirectionDegrees,WindSpeedMPH,WindSpeedGustMPH,Humidity,HourlyPrecipIn,Conditions,Clouds,dailyrainin,SoftwareType,DateUTC
2013-04-17 00:03:00,62.0,56.0,30.04,SW,223,3.0,-999.0,80,-99.99,,,-99.99,,2013-04-17 04:03:00,
2013-04-17 00:13:00,62.0,56.0,30.04,SW,223,3.0,-999.0,80,-99.99,,,-99.99,,2013-04-17 04:13:00,
2013-04-17 00:22:00,62.0,56.0,30.04,SSW,198,4.0,-999.0,81,-99.99,,,-99.99,,2013-04-17 04:22:00,
2013-04-17 00:33:00,62.0,56.0,30.04,SW,234,3.0,-999.0,81,-99.99,,,-99.99,,2013-04-17 04:33:00,
2013-04-17 00:42:00,62.0,56.0,30.04,SW,234,3.0,-999.0,81,-99.99,,,-99.99,,2013-04-17 04:42:00,
2013-04-17 00:52:00,62.0,56.0,30.04,SW,219,3.0,-999.0,82,-99.99,,,-99.99,,2013-04-17 04:52:00,
2013-04-17 01:03:00,62.0,56.0,30.04,SW,227,4.0,-999.0,82,-99.99,,,-99.99,,2013-04-17 05:03:00,
2013-04-17 01:12:00,62.0,56.0,30.04,SW,227,4.0,-999.0,82,-99.99,,,-99.99,,2013-04-17 05:12:00,
2013-04-17 01:22:00,62.0,56.0,30.04,SW,223,3.0,-999.0,82,-99.99,,,-99.99,,2013-04-17 05:22:00,
2013-04-17 01:32:00,62.0,57.0,30.04,SSW,205,4.0,-999.0,83,-99.99,,,-99.99,,2013-04-17 05:32:00,
2013-04-17 01:43:00,62.0,57.0,30.04,SSW,205,4.0,-999.0,83,-99.99,,,-99.99,,2013-04-17 05:43:00,
2013-04-17 01:52:00,61.0,56.0,30.03,SSW,206,5.0,-999.0,83,-99.99,,,-99.99,,2013-04-17 05:52:00,
2013-04-17 02:02:00,61.0,56.0,30.03,SSW,210,5.0,-999.0,83,-99.99,,,-99.99,,2013-04-17 06:02:00,
2013-04-17 02:12:00,61.0,56.0,30.03,SSW,210,5.0,-999.0,83,-99.99,,,-99.99,,2013-04-17 06:12:00,
2013-04-17 02:22:00,61.0,56.0,30.03,SW,231,4.0,-999.0,83,-99.99,,,-99.99,,2013-04-17 06:22:00,
2013-04-17 02:32:00,61.0,56.0,30.03,SW,216,4.0,-999.0,84,-99.99,,,-99.99,,2013-04-17 06:32:00,
2013-04-17 02:42:00,61.0,56.0,30.03,SW,216,4.0,-999.0,84,-99.99,,,-99.99,,2013-04-17 06:42:00,
2013-04-17 02:52:00,61.0,56.0,30.03,SW,229,6.0,-999.0,84,-99.99,,,-99.99,,2013-04-17 06:52:00,
2013-04-17 03:02:00,61.0,56.0,30.02,SSW,193,6.0,-999.0,85,-99.99,,,-99.99,,2013-04-17 07:02:00,
2013-04-17 03:12:00,61.0,56.0,30.02,SSW,193,6.0,-999.0,85,-99.99,,,-99.99,,2013-04-17 07:12:00,
2013-04-17 03:22:00,61.0,56.0,30.01,SSW,203,5.0,-999.0,85,-99.99,,,-99.99,,2013-04-17 07:22:00,
2013-04-17 03:32:00,61.0,56.0,30.01,SW,225,4.0,-999.0,85,-99.99,,,-99.99,,2013-04-17 07:32:00,
2013-04-17 03:42:00,61.0,56.0,30.01,SW,225,4.0,-999.0,85,-99.99,,,-99.99,,2013-04-17 07:42:00,
2013-04-17 03:52:00,61.0,57.0,30.01,SSW,200,3.0,-999.0,86,-99.99,,,-99.99,,2013-04-17 07:52:00,
2013-04-17 04:02:00,61.0,57.0,30.02,SW,227,1.0,-999.0,86,-99.99,,,-99.99,,2013-04-17 08:02:00,
2013-04-17 04:12:00,61.0,57.0,30.02,SW,227,1.0,-999.0,86,-99.99,,,-99.99,,2013-04-17 08:12:00,
2013-04-17 04:22:00,60.0,56.0,30.02,SSW,198,1.0,-999.0,87,-99.99,,,-99.99,,2013-04-17 08:22:00,
2013-04-17 04:32:00,60.0,56.0,30.01,SSW,198,2.0,-999.0,87,-99.99,,,-99.99,,2013-04-17 08:32:00,
2013-04-17 04:42:00,60.0,56.0,30.01,SSW,198,2.0,-999.0,87,-99.99,,,-99.99,,2013-04-17 08:42:00,
2013-04-17 04:52:00,60.0,56.0,30.01,SW,225,1.0,-999.0,88,-99.99,,,-99.99,,2013-04-17 08:52:00,
2013-04-17 05:02:00,61.0,57.0,30.00,SW,225,0.0,-999.0,88,-99.99,,,-99.99,,2013-04-17 09:02:00,
2013-04-17 05:12:00,61.0,57.0,30.00,SW,225,0.0,-999.0,88,-99.99,,,-99.99,,2013-04-17 09:12:00,
2013-04-17 05:22:00,61.0,58.0,30.00,SW,225,0.0,-999.0,89,-99.99,,,-99.99,,2013-04-17 09:22:00,
2013-04-17 05:33:00,60.0,57.0,29.99,SW,225,0.0,-999.0,91,-99.99,,,-99.99,,2013-04-17 09:33:00,
2013-04-17 05:42:00,60.0,57.0,29.99,SW,225,0.0,-999.0,91,-99.99,,,-99.99,,2013-04-17 09:42:00,
2013-04-17 05:52:00,59.0,57.0,29.99,SW,225,0.0,-999.0,92,-99.99,,,-99.99,,2013-04-17 09:52:00,
2013-04-17 06:03:00,59.0,57.0,30.01,SW,225,0.0,-999.0,93,-99.99,,,-99.99,,2013-04-17 10:03:00,
2013-04-17 06:12:00,59.0,57.0,30.01,SW,225,0.0,-999.0,93,-99.99,,,-99.99,,2013-04-17 10:12:00,
2013-04-17 06:23:00,59.0,57.0,30.01,SW,225,0.0,-999.0,94,-99.99,,,-99.99,,2013-04-17 10:23:00,
2013-04-17 06:32:00,59.0,58.0,30.02,SW,225,0.0,-999.0,95,-99.99,,,-99.99,,2013-04-17 10:32:00,
2013-04-17 06:43:00,59.0,58.0,30.02,SW,225,0.0,-999.0,95,-99.99,,,-99.99,,2013-04-17 10:43:00,
2013-04-17 06:52:00,59.0,58.0,30.03,SW,225,0.0,-999.0,95,-99.99,,,-99.99,,2013-04-17 10:52:00,
2013-04-17 07:02:00,59.0,58.0,30.04,SW,225,0.0,-999.0,95,-99.99,,,-99.99,,2013-04-17 11:02:00,
2013-04-17 07:12:00,59.0,58.0,30.04,SW,225,0.0,-999.0,95,-99.99,,,-99.99,,2013-04-17 11:12:00,
2013-04-17 07:22:00,59.0,58.0,30.05,SW,225,0.0,-999.0,95,-99.99,,,-99.99,,2013-04-17 11:22:00,
2013-04-17 07:32:00,59.0,58.0,30.06,West,276,0.0,-999.0,95,-99.99,,,-99.99,,2013-04-17 11:32:00,
2013-04-17 07:42:00,59.0,58.0,30.06,West,276,0.0,-999.0,95,-99.99,,,-99.99,,2013-04-17 11:42:00,
2013-04-17 07:52:00,59.0,58.0,30.08,West,279,0.0,-999.0,95,-99.99,,,-99.99,,2013-04-17 11:52:00,
2013-04-17 08:03:00,58.0,54.0,30.09,North,355,6.0,-999.0,86,-99.99,,,-99.99,,2013-04-17 12:03:00,
2013-04-17 08:12:00,58.0,54.0,30.09,North,355,6.0,-999.0,86,-99.99,,,-99.99,,2013-04-17 12:12:00,
2013-04-17 08:22:00,57.0,52.0,30.09,North,9,4.0,-999.0,82,-99.99,,,-99.99,,2013-04-17 12:22:00,
2013-04-17 08:32:00,56.0,50.0,30.09,NNE,15,4.0,-999.0,80,-99.99,,,-99.99,,2013-04-17 12:32:00,
2013-04-17 08:42:00,56.0,50.0,30.09,NNE,15,4.0,-999.0,80,-99.99,,,-99.99,,2013-04-17 12:42:00,
2013-04-17 08:52:00,56.0,50.0,30.10,North,349,2.0,-999.0,80,-99.99,,,-99.99,,2013-04-17 12:52:00,
2013-04-17 09:02:00,57.0,51.0,30.11,NNW,342,2.0,-999.0,79,-99.99,,,-99.99,,2013-04-17 13:02:00,
2013-04-17 09:12:00,57.0,51.0,30.11,NNW,342,2.0,-999.0,79,-99.99,,,-99.99,,2013-04-17 13:12:00,
2013-04-17 09:22:00,57.0,50.0,30.12,NNE,19,3.0,-999.0,77,-99.99,,,-99.99,,2013-04-17 13:22:00,
2013-04-17 09:32:00,57.0,50.0,30.12,North,360,4.0,-999.0,76,-99.99,,,-99.99,,2013-04-17 13:32:00,
2013-04-17 09:42:00,57.0,50.0,30.12,North,360,4.0,-999.0,76,-99.99,,,-99.99,,2013-04-17 13:42:00,
2013-04-17 09:52:00,57.0,49.0,30.12,NNW,346,4.0,-999.0,74,-99.99,,,-99.99,,2013-04-17 13:52:00,
2013-04-17 10:02:00,57.0,48.0,30.12,NE,52,5.0,-999.0,72,-99.99,,,-99.99,,2013-04-17 14:02:00,
2013-04-17 10:12:00,57.0,48.0,30.12,NE,52,5.0,-999.0,72,-99.99,,,-99.99,,2013-04-17 14:12:00,
2013-04-17 10:22:00,57.0,47.0,30.12,NE,36,3.0,-999.0,69,-99.99,,,-99.99,,2013-04-17 14:22:00,
2013-04-17 10:32:00,57.0,46.0,30.12,North,355,4.0,-999.0,66,-99.99,,,-99.99,,2013-04-17 14:32:00,
2013-04-17 10:42:00,58.0,46.0,30.12,NE,50,3.0,-999.0,65,-99.99,,,-99.99,,2013-04-17 14:42:00,
2013-04-17 10:52:00,58.0,46.0,30.12,NE,50,3.0,-999.0,65,-99.99,,,-99.99,,2013-04-17 14:52:00,
2013-04-17 11:02:00,58.0,45.0,30.12,North,360,4.0,-999.0,63,-99.99,,,-99.99,,2013-04-17 15:02:00,
2013-04-17 11:12:00,58.0,45.0,30.13,North,360,3.0,-999.0,62,-99.99,,,-99.99,,2013-04-17 15:12:00,
2013-04-17 11:22:00,58.0,45.0,30.13,North,360,3.0,-999.0,62,-99.99,,,-99.99,,2013-04-17 15:22:00,
2013-04-17 11:33:00,58.0,45.0,30.13,North,360,3.0,-999.0,62,-99.99,,,-99.99,,2013-04-17 15:33:00,
2013-04-17 11:43:00,58.0,45.0,30.13,North,360,3.0,-999.0,62,-99.99,,,-99.99,,2013-04-17 15:43:00,
2013-04-17 11:53:00,59.0,46.0,30.12,NW,324,2.0,-999.0,61,-99.99,,,-99.99,,2013-04-17 15:53:00,
2013-04-17 12:03:00,60.0,46.0,30.12,ENE,65,1.0,-999.0,59,-99.99,,,-99.99,,2013-04-17 16:03:00,
2013-04-17 12:13:00,60.0,46.0,30.12,ENE,65,1.0,-999.0,59,-99.99,,,-99.99,,2013-04-17 16:13:00,
2013-04-17 12:23:00,60.0,46.0,30.12,ENE,65,1.0,-999.0,59,-99.99,,,-99.99,,2013-04-17 16:23:00,
2013-04-17 12:32:00,61.0,47.0,30.11,NE,55,1.0,-999.0,59,-99.99,,,-99.99,,2013-04-17 16:32:00,
2013-04-17 12:42:00,61.0,47.0,30.11,NE,55,1.0,-999.0,59,-99.99,,,-99.99,,2013-04-17 16:42:00,
2013-04-17 12:52:00,61.0,47.0,30.11,NNE,17,1.0,-999.0,59,-99.99,,,-99.99,,2013-04-17 16:52:00,
2013-04-17 13:02:00,62.0,47.0,30.11,NNE,13,1.0,-999.0,59,-99.99,,,-99.99,,2013-04-17 17:02:00,
2013-04-17 13:12:00,62.0,47.0,30.11,NNE,13,1.0,-999.0,59,-99.99,,,-99.99,,2013-04-17 17:12:00,
2013-04-17 13:22:00,62.0,47.0,30.11,North,5,0.0,-999.0,59,-99.99,,,-99.99,,2013-04-17 17:22:00,
2013-04-17 13:33:00,63.0,48.0,30.10,WNW,300,2.0,-999.0,58,-99.99,,,-99.99,,2013-04-17 17:33:00,
2013-04-17 13:42:00,63.0,48.0,30.10,WNW,300,2.0,-999.0,58,-99.99,,,-99.99,,2013-04-17 17:42:00,
2013-04-17 13:52:00,64.0,48.0,30.10,NW,304,2.0,-999.0,57,-99.99,,,-99.99,,2013-04-17 17:52:00,
2013-04-17 14:02:00,64.0,48.0,30.10,NW,304,2.0,-999.0,57,-99.99,,,-99.99,,2013-04-17 18:02:00,
2013-04-17 14:12:00,64.0,48.0,30.10,NW,304,2.0,-999.0,57,-99.99,,,-99.99,,2013-04-17 18:12:00,
2013-04-17 14:33:00,66.0,46.0,30.09,WNW,288,3.0,-999.0,48,-99.99,,,-99.99,,2013-04-17 18:33:00,
2013-04-17 14:42:00,66.0,46.0,30.09,WNW,288,3.0,-999.0,48,-99.99,,,-99.99,,2013-04-17 18:42:00,
2013-04-17 14:52:00,68.0,48.0,30.09,NW,321,1.0,-999.0,48,-99.99,,,-99.99,,2013-04-17 18:52:00,
2013-04-17 15:02:00,68.0,48.0,30.09,NW,321,1.0,-999.0,48,-99.99,,,-99.99,,2013-04-17 19:02:00,
2013-04-17 15:12:00,68.0,48.0,30.09,NW,321,1.0,-999.0,48,-99.99,,,-99.99,,2013-04-17 19:12:00,
2013-04-17 15:22:00,69.0,46.0,30.09,WNW,296,2.0,-999.0,44,-99.99,,,-99.99,,2013-04-17 19:22:00,
2013-04-17 15:32:00,69.0,45.0,30.08,NE,54,2.0,-999.0,42,-99.99,,,-99.99,,2013-04-17 19:32:00,
2013-04-17 15:42:00,70.0,46.0,30.08,ENE,68,1.0,-999.0,42,-99.99,,,-99.99,,2013-04-17 19:42:00,
2013-04-17 15:52:00,70.0,46.0,30.08,ENE,68,1.0,-999.0,42,-99.99,,,-99.99,,2013-04-17 19:52:00,
2013-04-17 16:03:00,70.0,45.0,30.08,NE,49,2.0,-999.0,41,-99.99,,,-99.99,,2013-04-17 20:03:00,
2013-04-17 16:12:00,70.0,45.0,30.08,NE,49,2.0,-999.0,41,-99.99,,,-99.99,,2013-04-17 20:12:00,
2013-04-17 16:22:00,71.0,43.0,30.08,NE,44,1.0,-999.0,36,-99.99,,,-99.99,,2013-04-17 20:22:00,
2013-04-17 16:33:00,71.0,42.0,30.08,WNW,282,2.0,-999.0,35,-99.99,,,-99.99,,2013-04-17 20:33:00,
2013-04-17 16:42:00,71.0,42.0,30.08,WNW,282,2.0,-999.0,35,-99.99,,,-99.99,,2013-04-17 20:42:00,
2013-04-17 16:52:00,72.0,43.0,30.08,NW,305,1.0,-999.0,35,-99.99,,,-99.99,,2013-04-17 20:52:00,
2013-04-17 17:03:00,72.0,39.0,30.08,NNW,336,2.0,-999.0,30,-99.99,,,-99.99,,2013-04-17 21:03:00,
2013-04-17 17:12:00,72.0,39.0,30.08,NNW,336,2.0,-999.0,30,-99.99,,,-99.99,,2013-04-17 21:12:00,
2013-04-17 17:22:00,73.0,40.0,30.08,NW,313,3.0,-999.0,30,-99.99,,,-99.99,,2013-04-17 21:22:00,
2013-04-17 17:33:00,73.0,39.0,30.08,NW,321,2.0,-999.0,29,-99.99,,,-99.99,,2013-04-17 21:33:00,
2013-04-17 17:43:00,73.0,39.0,30.08,NW,321,2.0,-999.0,29,-99.99,,,-99.99,,2013-04-17 21:43:00,
2013-04-17 17:53:00,73.0,40.0,30.09,West,266,0.0,-999.0,30,-99.99,,,-99.99,,2013-04-17 21:53:00,
2013-04-17 18:02:00,73.0,39.0,30.09,WNW,294,2.0,-999.0,29,-99.99,,,-99.99,,2013-04-17 22:02:00,
2013-04-17 18:13:00,73.0,39.0,30.09,WNW,294,2.0,-999.0,29,-99.99,,,-99.99,,2013-04-17 22:13:00,
2013-04-17 18:22:00,73.0,39.0,30.09,WNW,294,2.0,-999.0,29,-99.99,,,-99.99,,2013-04-17 22:22:00,
2013-04-17 18:33:00,72.0,38.0,30.08,North,5,2.0,-999.0,29,-99.99,,,-99.99,,2013-04-17 22:33:00,
2013-04-17 18:43:00,73.0,38.0,30.09,North,5,0.0,-999.0,28,-99.99,,,-99.99,,2013-04-17 22:43:00,
2013-04-17 18:53:00,73.0,38.0,30.09,North,5,0.0,-999.0,28,-99.99,,,-99.99,,2013-04-17 22:53:00,
2013-04-17 19:02:00,72.0,40.0,30.09,North,5,1.0,-999.0,31,-99.99,,,-99.99,,2013-04-17 23:02:00,
2013-04-17 19:12:00,71.0,39.0,30.09,North,360,1.0,-999.0,31,-99.99,,,-99.99,,2013-04-17 23:12:00,
2013-04-17 19:22:00,71.0,39.0,30.09,North,360,1.0,-999.0,31,-99.99,,,-99.99,,2013-04-17 23:22:00,
2013-04-17 19:32:00,70.0,40.0,30.09,North,360,0.0,-999.0,33,-99.99,,,-99.99,,2013-04-17 23:32:00,
2013-04-17 19:42:00,70.0,40.0,30.10,North,360,0.0,-999.0,33,-99.99,,,-99.99,,2013-04-17 23:42:00,
2013-04-17 19:52:00,70.0,40.0,30.10,North,360,0.0,-999.0,33,-99.99,,,-99.99,,2013-04-17 23:52:00,
2013-04-17 20:02:00,69.0,41.0,30.10,North,360,0.0,-999.0,36,-99.99,,,-99.99,,2013-04-18 00:02:00,
2013-04-17 20:12:00,68.0,40.0,30.10,North,360,0.0,-999.0,36,-99.99,,,-99.99,,2013-04-18 00:12:00,
2013-04-17 20:22:00,68.0,40.0,30.10,North,360,0.0,-999.0,36,-99.99,,,-99.99,,2013-04-18 00:22:00,
2013-04-17 20:32:00,66.0,45.0,30.12,NNE,13,1.0,-999.0,46,-99.99,,,-99.99,,2013-04-18 00:32:00,
2013-04-17 20:42:00,63.0,50.0,30.12,ESE,118,2.0,-999.0,63,-99.99,,,-99.99,,2013-04-18 00:42:00,
2013-04-17 20:52:00,63.0,50.0,30.12,ESE,118,2.0,-999.0,63,-99.99,,,-99.99,,2013-04-18 00:52:00,
2013-04-17 21:02:00,62.0,50.0,30.13,SE,126,1.0,-999.0,65,-99.99,,,-99.99,,2013-04-18 01:02:00,
2013-04-17 21:12:00,61.0,50.0,30.14,ESE,109,1.0,-999.0,66,-99.99,,,-99.99,,2013-04-18 01:12:00,
2013-04-17 21:22:00,61.0,50.0,30.14,ESE,109,1.0,-999.0,66,-99.99,,,-99.99,,2013-04-18 01:22:00,
2013-04-17 21:32:00,61.0,50.0,30.14,ESE,123,0.0,-999.0,67,-99.99,,,-99.99,,2013-04-18 01:32:00,
2013-04-17 21:42:00,60.0,49.0,30.15,ESE,123,0.0,-999.0,68,-99.99,,,-99.99,,2013-04-18 01:42:00,
2013-04-17 21:52:00,60.0,49.0,30.15,ESE,123,0.0,-999.0,68,-99.99,,,-99.99,,2013-04-18 01:52:00,
2013-04-17 22:02:00,59.0,49.0,30.16,SE,138,0.0,-999.0,69,-99.99,,,-99.99,,2013-04-18 02:02:00,
2013-04-17 22:12:00,59.0,49.0,30.16,South,182,0.0,-999.0,70,-99.99,,,-99.99,,2013-04-18 02:12:00,
2013-04-17 22:22:00,59.0,49.0,30.16,South,182,0.0,-999.0,70,-99.99,,,-99.99,,2013-04-18 02:22:00,
2013-04-17 22:32:00,58.0,47.0,30.16,South,171,0.0,-999.0,68,-99.99,,,-99.99,,2013-04-18 02:32:00,
2013-04-17 22:42:00,58.0,47.0,30.16,South,171,0.0,-999.0,68,-99.99,,,-99.99,,2013-04-18 02:42:00,
2013-04-17 22:52:00,58.0,47.0,30.16,South,171,0.0,-999.0,68,-99.99,,,-99.99,,2013-04-18 02:52:00,
2013-04-17 23:02:00,57.0,46.0,30.16,South,173,1.0,-999.0,67,-99.99,,,-99.99,,2013-04-18 03:02:00,
2013-04-17 23:12:00,56.0,45.0,30.17,South,185,1.0,-999.0,67,-99.99,,,-99.99,,2013-04-18 03:12:00,
2013-04-17 23:22:00,56.0,45.0,30.17,South,185,1.0,-999.0,67,-99.99,,,-99.99,,2013-04-18 03:22:00,
2013-04-17 23:33:00,56.0,45.0,30.17,SSW,192,0.0,-999.0,67,-99.99,,,-99.99,,2013-04-18 03:33:00,
2013-04-17 23:43:00,55.0,44.0,30.18,SSW,192,1.0,-999.0,67,-99.99,,,-99.99,,2013-04-18 03:43:00,
2013-04-17 23:53:00,55.0,44.0,30.18,SSW,192,1.0,-999.0,67,-99.99,,,-99.99,,2013-04-18 03:53:00,